This demonstration page uses our WeatherBlox Daily Observations layout. Learn more.

Left ArrowRight Arrow

Hourly Observations for May 11, 2018

Temp ( °F °C ) Dew Point ( °F °C ) Humidity (%) Winds ( mph kmh ) Pressure ( in mb ) Visibility ( mi km ) Precip ( " mm )
12:53 am 00:53 Mostly Clear 65 18.3 54 12.2 68 68 NE 6 9 29.98 1015 10 16 0.00 0.00
1:53 am 01:53 Mostly Cloudy 61 16.1 57 13.9 87 87 Calm 29.98 1015 10 16 0.00 0.00
2:53 am 02:53 Clear 58 14.4 55 12.8 90 90 Calm 29.99 1016 10 16 0.00 0.00
3:53 am 03:53 Clear 57 13.9 55 12.8 93 93 Calm 30.01 1016 10 16 0.00 0.00
4:53 am 04:53 Partly Cloudy 57 13.9 54 12.2 90 90 Calm 30.01 1016 10 16 0.00 0.00
5:53 am 05:53 Mostly Clear 55 12.8 52 11.1 90 90 Calm 30.01 1016 10 16 0.00 0.00
6:53 am 06:53 Sunny 57 13.9 53 11.7 87 87 NE 3 6 30.01 1016 10 16 0.00 0.00
7:53 am 07:53 Sunny 63 17.2 55 12.8 76 76 ENE 3 6 30.02 1017 10 16 0.00 0.00
8:53 am 08:53 Sunny 67 19.4 56 13.3 68 68 E 9 15 30.02 1017 10 16 0.00 0.00
9:53 am 09:53 Sunny 72 22.2 57 13.9 59 59 VRB 6 9 30.01 1016 10 16 0.00 0.00
10:53 am 10:53 Sunny 75 23.9 58 14.4 55 55 VRB 3 6 30.02 1017 10 16 0.00 0.00
11:53 am 11:53 Sunny 78 25.6 59 15 52 52 Calm 30.02 1017 10 16 0.00 0.00
12:53 pm 12:53 Sunny 82 27.8 62 16.7 51 51 VRB 6 9 29.99 1016 10 16 0.00 0.00
1:53 pm 13:53 Sunny 83 28.3 62 16.7 49 49 WSW 9 15 29.97 1015 10 16 0.00 0.00
2:53 pm 14:53 Sunny 87 30.6 60 15.6 40 40 WSW 12 19 29.94 1014 10 16 0.00 0.00
3:53 pm 15:53 Mostly Sunny 87 30.6 58 14.4 37 37 WSW 15 24 29.94 1014 10 16 0.00 0.00
4:53 pm 16:53 Sunny 86 30 58 14.4 39 39 SW 8 13 29.90 1013 10 16 0.00 0.00
5:53 pm 17:53 Sunny 85 29.4 58 14.4 40 40 SW 12 19 29.91 1013 10 16 0.00 0.00
6:53 pm 18:53 Sunny 84 28.9 58 14.4 41 41 SW 6 9 29.91 1013 10 16 0.00 0.00
7:53 pm 19:53 Sunny 82 27.8 59 15 46 46 SSW 6 9 29.91 1013 10 16 0.00 0.00
8:53 pm 20:53 Clear 78 25.6 61 16.1 56 56 VRB 3 6 29.91 1013 10 16 0.00 0.00
9:53 pm 21:53 Clear 77 25 60 15.6 56 56 Calm 29.93 1014 10 16 0.00 0.00
10:53 pm 22:53 Clear 77 25 59 15 54 54 VRB 5 7 29.96 1014 10 16 0.00 0.00
11:53 pm 23:53 Clear 77 25 60 15.6 56 56 SSW 3 6 29.97 1015 10 16 0.00 0.00

Powered by AerisWeather